Wind_Speed
5 5 7 8 10 9 7 7 6 5 4 3 3 3 3 3 2 1 2 4 4 4 4 5 7 9 10 9 8 5 2 3 6 9 10 11 11 10 9 10 10 11 12
4 5 6 7 9 8 6 6 7 6 5 4 3 3 3 4 4 3 2 2 2 3 3 5 5 7 6 5 5 4 1 4 6 9 11 11 12 11 9 9 10 11 12
5 6 4 5 8 7 7 6 6 6 5 5 4 4 4 4 4 5 5 5 5 6 6 7 7 5 4 4 4 3 0 4 6 8 10 12 12 12 9 11 10 10 10
5 5 2 3 5 7 7 6 5 6 6 6 6 6 6 6 6 6 7 6 6 6 7 6 8 6 5 3 3 3 0 4 7 8 9 11 12 13 9 8 6 10 10
3 3 4 4 5 6 6 5 6 6 6 7 7 7 7 8 8 7 6 6 6 5 5 7 9 8 6 4 3 3 1 4 7 9 9 10 12 14 11 5 6 9 9
5 6 5 5 6 6 7 7 7 7 7 8 8 8 8 8 9 10 9 9 8 8 8 6 7 7 7 6 4 3 2 2 7 9 10 10 12 18 14 12 8 6 6
9 9 10 10 10 11 11 12 12 12 12 12 11 11 10 10 10 11 11 10 10 9 8 6 7 8 9 6 5 3 2 2 6 9 10 11 11 12 12 8 4 3 4
8 10 11 11 13 14 15 16 16 16 16 16 16 15 14 13 12 12 12 12 11 9 7 7 7 8 7 5 4 3 1 1 5 10 12 13 12 9 7 4 4 4 5
5 6 7 8 10 11 12 13 14 17 19 19 19 19 19 17 16 15 13 12 12 11 9 9 9 8 7 5 3 1 1 2 6 12 15 13 9 10 6 5 6 7 7
0 4 6 8 9 10 11 12 13 13 14 17 19 20 21 21 20 18 15 13 13 13 12 11 10 9 7 5 3 3 2 3 6 12 16 15 12 13 12 10 10 10 10
4 4 5 7 9 11 12 13 12 13 13 13 14 15 17 18 19 21 20 17 15 15 14 14 13 11 10 8 5 3 3 3 5 11 14 18 18 15 15 15 13 18 17
6 7 8 8 9 10 11 12 13 14 15 15 14 14 15 16 18 20 22 22 19 17 16 16 16 14 12 10 8 7 5 5 5 8 13 19 19 19 18 15 22 21 23
2 3 8 9 9 10 11 13 15 15 15 16 16 16 16 16 16 17 19 21 22 22 19 19 18 16 15 14 12 11 9 8 6 7 11 16 21 19 19 19 20 21 27
7 7 7 7 7 10 11 12 13 14 14 15 16 17 17 17 17 18 18 19 22 24 25 23 21 21 20 18 17 15 13 11 9 8 9 11 15 21 21 22 19 20 21
12 13 12 10 9 9 10 12 12 14 14 14 15 16 16 17 18 18 19 20 20 23 25 27 27 25 24 22 21 20 18 17 15 14 12 11 12 15 20 19 20 23 21
18 17 18 15 15 14 13 12 14 15 15 15 16 16 17 18 18 19 20 21 21 22 23 25 28 29 28 27 26 24 23 22 22 20 19 17 15 15 16 18 22 25 25
21 20 22 22 22 20 19 18 18 17 16 17 18 18 18 18 19 20 21 22 22 22 23 24 25 28 30 31 29 27 27 27 26 25 25 22 21 21 18 16 16 15 16
21 22 24 26 26 25 25 25 23 22 21 20 21 21 21 20 20 20 20 22 25 25 24 24 26 26 29 30 32 31 30 30 29 29 30 28 29 26 21 19 18 17 16
28 27 28 29 30 31 31 30 29 28 27 26 24 24 26 25 24 23 23 23 24 25 26 27 27 27 28 30 33 33 33 34 33 33 32 31 32 32 26 24 25 22 19
35 34 34 34 34 35 35 34 33 33 33 33 33 30 30 30 29 28 27 27 27 26 26 26 27 28 28 29 31 35 37 36 36 36 34 34 34 33 31 30 29 30 23
38 40 40 39 38 39 39 38 38 37 37 38 40 40 38 35 35 34 31 30 30 29 28 28 27 27 28 29 33 34 34 37 39 37 35 36 35 34 34 33 33 32 31
34 35 36 37 40 41 42 44 44 43 43 43 43 42 43 43 39 38 37 34 33 33 32 31 30 29 28 29 32 33 36 37 38 37 39 39 37 37 37 36 36 35 29
37 35 34 35 38 41 44 45 47 48 50 50 50 47 46 46 46 44 41 39 38 37 36 35 34 32 30 30 31 32 35 36 35 36 37 38 39 41 41 39 38 34 34
34 35 36 37 38 40 45 47 49 50 52 53 56 55 52 50 48 48 47 44 42 42 41 39 37 37 34 32 33 32 33 34 34 35 35 36 37 40 40 42 42 38 37
36 36 35 36 40 44 46 46 47 50 53 56 58 59 57 54 51 49 49 48 46 45 45 43 42 39 37 35 33 33 34 34 35 35 35 35 34 34 37 40 43 43 42
38 40 42 43 42 43 46 48 50 51 52 54 56 57 57 56 54 49 49 51 49 49 49 47 45 44 41 38 36 34 33 35 35 35 36 34 35 33 34 36 39 40 42
Wind_Direction
132 108 104 126 139 156 167 172 183 192 203 224 230 232 229 235 223 226 140 184 193 202 242 269 287 296 305 315 325 351 20 134 144 144 144 145 147 147 143 135 133 137 140
182 135 111 127 133 144 161 179 183 192 208 222 232 244 257 248 241 222 234 225 236 246 259 283 293 303 309 319 336 355 28 141 157 150 149 148 151 150 149 148 144 143 140
199 149 126 136 147 155 162 179 187 198 207 219 228 244 256 256 253 250 239 253 265 282 290 295 297 306 318 334 349 352 112 162 155 154 156 149 147 143 147 135 146 148 141
188 168 154 169 174 178 178 186 202 212 218 223 233 241 248 255 249 259 269 265 273 278 287 295 306 312 314 328 349 1 175 169 160 161 163 153 147 125 129 146 163 152 147
169 187 208 206 193 194 198 210 224 231 233 238 245 245 246 249 253 253 263 271 271 282 282 299 308 313 318 326 344 12 33 173 174 168 166 160 148 120 138 152 166 150 150
215 227 228 220 215 216 225 237 239 239 241 244 251 256 252 245 252 256 262 263 267 277 283 288 304 311 320 332 342 23 46 166 180 173 169 161 160 145 162 181 194 172 166
245 245 240 241 238 239 238 239 243 247 249 250 251 254 255 250 249 256 260 262 265 271 273 260 263 284 309 321 343 7 19 152 180 176 169 161 162 161 169 191 207 199 194
232 241 248 252 252 249 247 246 244 244 247 249 250 251 251 252 254 252 253 259 263 266 260 250 256 273 295 319 338 351 337 167 176 177 171 162 151 142 133 109 133 109 158
202 234 253 256 258 260 259 256 254 249 245 245 247 248 249 251 251 255 254 251 257 255 251 246 249 262 277 310 346 331 266 198 183 182 171 154 146 157 165 143 175 199 238
218 245 256 261 261 261 263 267 265 258 254 249 249 248 249 251 249 247 251 251 248 250 251 245 248 255 262 281 305 311 267 214 188 191 187 165 147 178 178 183 207 211 216
359 330 304 288 277 272 269 270 266 263 259 256 254 254 254 251 247 245 245 246 249 248 248 245 246 248 248 256 267 258 278 264 212 200 199 176 169 163 180 193 206 226 226
345 337 326 311 298 288 280 270 270 269 265 260 254 250 250 252 252 247 245 244 245 248 248 248 248 248 244 249 246 250 259 254 238 214 209 188 190 197 210 216 219 231 234
254 323 315 314 310 303 292 281 277 273 268 265 261 257 252 247 247 249 249 246 243 242 246 249 250 250 250 246 243 240 243 246 236 226 213 206 203 214 229 239 245 248 249
262 253 239 245 280 296 294 289 282 277 273 269 266 264 261 257 251 247 245 244 242 241 238 243 246 247 246 246 247 244 238 234 230 228 226 220 214 220 233 239 255 257 266
253 257 253 248 257 251 273 280 278 276 273 269 267 267 265 262 259 255 249 245 243 242 241 240 242 245 247 248 246 245 242 236 233 232 229 236 237 225 229 237 244 253 274
251 252 252 248 247 246 253 258 266 269 271 271 268 267 266 265 262 259 255 249 244 241 242 243 240 240 241 245 247 246 243 240 237 234 233 230 234 244 242 244 252 258 262
256 256 254 249 251 253 251 247 251 255 258 266 268 268 268 268 265 261 259 256 250 246 243 240 242 243 240 242 243 246 249 249 245 240 237 239 242 236 236 245 250 252 259
261 261 258 255 253 253 254 251 246 246 250 250 258 263 263 261 261 261 260 258 255 250 245 244 242 242 237 239 242 242 243 246 247 246 242 241 243 238 235 246 247 249 253
267 264 263 260 259 256 255 257 255 249 244 248 248 252 257 257 256 255 257 257 258 256 251 247 245 244 241 239 240 243 244 244 246 246 248 247 247 244 249 249 246 242 250
268 266 261 260 258 258 257 257 257 254 250 247 247 245 246 250 251 252 253 254 255 256 255 253 250 247 246 245 243 242 242 245 247 250 251 251 251 252 252 248 249 251 259
269 267 265 261 257 256 257 256 256 255 253 250 250 249 247 243 247 249 249 251 253 253 255 255 252 251 250 249 248 246 246 246 245 246 248 252 254 253 253 252 250 253 248
276 269 265 262 261 260 256 258 258 257 257 255 255 254 255 253 247 247 248 247 248 249 249 253 255 252 249 249 251 251 249 248 248 249 250 249 251 256 254 252 252 256 250
273 267 264 262 263 262 261 260 258 257 259 258 258 257 255 254 255 252 249 248 247 247 248 250 252 252 251 248 250 251 253 252 252 250 250 251 250 250 251 252 251 250 253
268 266 267 269 269 266 264 260 258 255 254 255 258 257 256 255 254 254 252 250 248 247 247 248 249 250 249 249 251 251 253 254 254 253 249 249 249 252 254 254 254 252 255
271 268 268 267 267 268 267 261 258 256 257 258 260 262 259 254 255 255 256 252 249 248 247 247 247 247 248 247 249 250 252 255 254 255 252 251 251 251 252 253 254 255 253
279 281 281 278 276 274 273 270 262 260 260 261 261 261 263 263 257 254 255 255 250 247 246 245 243 244 245 246 247 251 254 257 257 256 257 254 251 250 251 252 250 255 256
Height
3161 3161 3161 3162 3163 3164 3165 3167 3167 3168 3170 3171 3171 3172 3172 3172 3172 3173 3173 3173 3174 3174 3174 3174 3174 3173 3172 3172 3171 3171 3171 3171 3171 3172 3173 3174 3176 3177 3179 3180 3180 3182 3182
3161 3162 3162 3163 3164 3165 3166 3167 3168 3169 3170 3171 3172 3172 3173 3173 3173 3173 3174 3174 3174 3174 3174 3174 3174 3174 3173 3173 3172 3171 3172 3172 3173 3173 3174 3175 3176 3178 3179 3180 3181 3183 3184
3163 3163 3164 3165 3165 3166 3167 3168 3168 3169 3170 3171 3172 3173 3173 3174 3174 3174 3174 3174 3174 3174 3174 3174 3174 3173 3173 3173 3173 3172 3172 3173 3173 3174 3176 3176 3177 3179 3180 3181 3182 3183 3184
3163 3164 3165 3166 3166 3167 3168 3168 3169 3170 3170 3171 3172 3172 3173 3173 3173 3173 3174 3174 3174 3174 3173 3173 3173 3173 3173 3173 3173 3173 3173 3173 3174 3176 3177 3178 3179 3181 3182 3183 3183 3184 3185
3163 3164 3165 3165 3166 3167 3168 3169 3169 3169 3170 3170 3171 3172 3172 3172 3173 3173 3173 3174 3174 3174 3174 3174 3173 3173 3173 3173 3173 3173 3173 3174 3175 3176 3178 3179 3180 3182 3184 3184 3184 3185 3186
3163 3164 3164 3165 3166 3167 3167 3168 3169 3169 3169 3169 3170 3170 3171 3171 3172 3172 3173 3173 3173 3173 3174 3174 3173 3173 3173 3173 3173 3173 3173 3174 3175 3176 3177 3179 3181 3183 3185 3186 3185 3186 3186
3162 3162 3163 3163 3164 3165 3166 3166 3167 3168 3168 3168 3169 3169 3169 3170 3171 3171 3172 3172 3172 3172 3173 3173 3173 3173 3173 3174 3174 3173 3173 3174 3174 3175 3177 3179 3181 3183 3185 3186 3186 3186 3186
3160 3160 3160 3161 3162 3162 3163 3163 3164 3165 3165 3166 3167 3167 3168 3168 3169 3169 3170 3170 3171 3171 3172 3172 3173 3172 3172 3173 3174 3174 3173 3173 3174 3175 3177 3179 3181 3184 3185 3186 3187 3187 3188
3158 3158 3158 3159 3159 3159 3160 3160 3161 3161 3162 3162 3163 3164 3165 3166 3167 3167 3168 3168 3169 3170 3170 3171 3172 3172 3172 3173 3174 3173 3173 3173 3174 3175 3177 3180 3182 3183 3185 3186 3188 3188 3189
3157 3157 3157 3157 3157 3157 3157 3157 3157 3158 3158 3158 3159 3160 3161 3162 3164 3165 3166 3166 3167 3167 3168 3169 3171 3171 3171 3172 3173 3173 3173 3173 3173 3175 3176 3179 3181 3182 3184 3186 3188 3188 3189
3156 3156 3156 3156 3156 3155 3155 3155 3155 3155 3155 3156 3156 3156 3157 3158 3159 3161 3163 3164 3165 3165 3166 3167 3169 3169 3170 3170 3172 3173 3173 3173 3173 3174 3175 3178 3181 3182 3183 3184 3186 3187 3188
3154 3154 3155 3154 3154 3154 3153 3153 3153 3153 3153 3153 3153 3153 3154 3154 3155 3156 3158 3160 3162 3163 3164 3165 3166 3167 3168 3169 3170 3171 3172 3172 3173 3174 3175 3177 3179 3181 3183 3183 3185 3186 3187
3149 3150 3152 3153 3153 3152 3152 3151 3151 3151 3150 3150 3151 3151 3151 3151 3152 3153 3154 3155 3157 3159 3161 3162 3163 3165 3165 3166 3168 3169 3170 3171 3172 3173 3174 3176 3177 3179 3180 3182 3183 3183 3186
3147 3146 3146 3143 3146 3149 3150 3150 3149 3148 3148 3148 3148 3148 3148 3149 3149 3149 3150 3150 3152 3154 3156 3158 3160 3161 3162 3163 3165 3166 3167 3169 3170 3171 3172 3174 3176 3176 3177 3179 3181 3181 3182
3144 3143 3143 3144 3143 3139 3142 3145 3146 3146 3145 3145 3145 3144 3145 3145 3146 3146 3146 3147 3148 3149 3150 3152 3155 3157 3159 3160 3161 3162 3164 3165 3167 3168 3169 3171 3173 3174 3175 3176 3177 3177 3178
3141 3141 3140 3140 3139 3139 3138 3136 3139 3141 3141 3141 3141 3141 3141 3141 3141 3142 3143 3143 3143 3144 3145 3147 3148 3151 3153 3155 3157 3158 3159 3161 3163 3165 3166 3167 3169 3170 3172 3173 3173 3174 3174
3138 3137 3137 3136 3135 3136 3135 3134 3134 3133 3133 3136 3136 3137 3137 3137 3137 3137 3138 3139 3138 3139 3140 3141 3142 3144 3147 3149 3150 3152 3155 3157 3159 3160 3162 3163 3165 3166 3167 3169 3169 3170 3170
3133 3133 3132 3131 3131 3131 3130 3129 3129 3130 3130 3128 3129 3131 3131 3131 3132 3133 3133 3134 3134 3134 3134 3135 3136 3138 3140 3142 3144 3146 3148 3150 3153 3155 3156 3158 3159 3161 3161 3163 3165 3165 3166
3127 3127 3126 3126 3125 3124 3123 3124 3124 3124 3123 3124 3122 3123 3124 3124 3125 3126 3127 3127 3128 3129 3129 3129 3130 3132 3134 3136 3138 3140 3142 3142 3145 3147 3150 3152 3154 3155 3156 3159 3160 3160 3162
3119 3119 3119 3119 3118 3118 3117 3117 3117 3117 3117 3117 3116 3115 3114 3116 3116 3118 3119 3120 3121 3122 3123 3123 3124 3125 3127 3129 3130 3132 3134 3136 3138 3140 3143 3145 3148 3150 3151 3153 3154 3155 3156
3110 3110 3110 3109 3109 3109 3109 3109 3109 3110 3109 3109 3108 3107 3107 3106 3108 3109 3110 3112 3114 3115 3116 3116 3117 3118 3120 3122 3123 3124 3127 3129 3130 3133 3135 3138 3141 3143 3145 3147 3148 3150 3151
3101 3100 3099 3099 3099 3100 3100 3100 3100 3101 3101 3100 3100 3100 3100 3100 3100 3101 3103 3104 3105 3107 3108 3110 3111 3111 3113 3114 3115 3117 3118 3121 3122 3126 3128 3131 3133 3135 3137 3140 3141 3143 3145
3092 3090 3090 3090 3089 3089 3089 3089 3088 3089 3089 3089 3089 3091 3091 3091 3092 3093 3094 3096 3097 3098 3100 3102 3103 3104 3106 3106 3107 3109 3109 3111 3115 3117 3119 3121 3124 3126 3129 3132 3133 3135 3138
3084 3082 3081 3080 3079 3079 3079 3078 3078 3077 3076 3076 3076 3077 3079 3080 3081 3082 3084 3085 3088 3089 3091 3093 3094 3095 3096 3099 3099 3101 3102 3103 3105 3107 3110 3111 3113 3116 3119 3122 3124 3126 3129
3076 3075 3073 3071 3070 3068 3067 3066 3065 3064 3063 3062 3062 3062 3065 3068 3069 3071 3073 3074 3077 3079 3081 3083 3084 3085 3087 3089 3090 3092 3093 3094 3096 3097 3099 3103 3105 3107 3109 3111 3113 3116 3118
3067 3065 3063 3062 3060 3059 3057 3056 3055 3054 3053 3051 3051 3050 3051 3052 3055 3058 3059 3061 3064 3066 3069 3072 3074 3075 3077 3079 3081 3083 3085 3086 3087 3088 3089 3092 3094 3098 3099 3101 3103 3106 3109